Weather History for Topeka, KS

Change the Weather History Date:

Monday, November 5, 2012

  Actual Average Record
Temperature  
Mean Temperature 49 °F 49 °F  
Max Temperature 54 °F 60 °F 82 °F (1924)
Min Temperature 44 °F 38 °F 17 °F (1959)
Degree Days  
Heating Degree Days 16 16  
Month to date heating degree days 65 76  
Since 1 July heating degree days 438 432  
Cooling Degree Days 0 0  
Month to date cooling degree days 0 0  
Year to date cooling degree days 1974 1420  
Moisture  
Dew Point 41 °F    
Average Humidity 80    
Maximum Humidity 89    
Minimum Humidity 71    
Precipitation  
Precipitation T in 0.08 in 1.78 in (1912)
Month to date precipitation T 0.38  
Year to date precipitation 21.00 33.64  
Snow  
Snow 0.00 in 0.00 in 1.00 in (1959)
Month to date snowfall 0.0 0.1  
Year to date snowfall 3.0 11.7  
Since 1 July snowfall 0.0 0.4  
Snow Depth 0.00 in    
Sea Level Pressure  
Sea Level Pressure 30.09 in    
Wind  
Wind Speed 9 mph (NW)    
Max Wind Speed 20 mph    
Max Gust Speed 26 mph    
Visibility 8 miles    
Events Rain    
T = Trace of Precipitation, MM = Missing Value Source: NWS Daily Summary

Daily Weather History Graph

Daily Weather History Graph

Search for Another Location

Airport:

Trip Planner

Search our weather history database for the weather conditions in past years. The results will help you decide how hot, cold, wet, or windy it might be!

Date:

Astronomy

Nov. 05, 2012 Rise Set
Actual Time 6:54 AM CST 5:16 PM CST
Civil Twilight 6:26 AM CST 5:44 PM CST
Nautical Twilight 5:55 AM CST 6:16 PM CST
Astronomical Twilight 5:23 AM CST 6:47 PM CST
Moon 10:55 PM CST (11/5) 12:14 PM CST (11/5)
Length of Visible Light 11h 17m
Length of Day
10h 21m
Waning Gibbous, 62% of the Moon is Illuminated
Nov 5
Waning Gibbous
Nov 6
Last Quarter
Nov 13
New
Nov 20
First Quarter
Nov 28
Full

Hourly Weather History & Observations

Time (CST) Temp. Windchill Dew Point Humidity Pressure Visibility Wind Dir Wind Speed Gust Speed Precip Events Conditions
12:53 AM 51.1 °F - 43.0 °F 74% 30.00 in 10.0 mi SSE 3.5 mph - N/A   Overcast
1:53 AM 51.1 °F - 43.0 °F 74% 30.01 in 10.0 mi West 4.6 mph - 0.00 in Rain Light Rain
2:53 AM 52.0 °F - 43.0 °F 71% 30.01 in 10.0 mi WNW 12.7 mph - 0.00 in   Overcast
3:53 AM 50.0 °F - 42.1 °F 74% 30.01 in 10.0 mi NW 12.7 mph - 0.00 in   Overcast
4:10 AM 50.0 °F - 42.8 °F 76% 30.01 in 10.0 mi NW 12.7 mph - N/A   Overcast
4:53 AM 48.9 °F - 42.1 °F 77% 30.01 in 10.0 mi NW 11.5 mph - N/A   Overcast
5:18 AM 48.2 °F - 42.8 °F 82% 30.02 in 10.0 mi NW 9.2 mph - 0.00 in   Overcast
5:53 AM 48.0 °F - 43.0 °F 83% 30.02 in 9.0 mi NW 13.8 mph 19.6 mph 0.00 in   Overcast
6:53 AM 48.0 °F - 42.1 °F 80% 30.04 in 9.0 mi NW 13.8 mph 21.9 mph 0.00 in   Overcast
7:53 AM 46.9 °F - 41.0 °F 80% 30.06 in 8.0 mi NNW 15.0 mph 23.0 mph 0.00 in   Overcast
8:53 AM 46.9 °F - 39.9 °F 77% 30.07 in 10.0 mi NNW 13.8 mph - N/A   Overcast
9:53 AM 46.9 °F - 39.9 °F 77% 30.08 in 10.0 mi NW 13.8 mph - N/A   Overcast
10:53 AM 46.0 °F 40.2 °F 39.0 °F 76% 30.11 in 10.0 mi NW 12.7 mph 26.5 mph N/A   Overcast
11:42 AM 44.6 °F 37.8 °F 41.0 °F 87% 30.10 in 2.0 mi NW 15.0 mph 23.0 mph 0.00 in Rain Light Rain
11:48 AM 44.6 °F 38.8 °F 41.0 °F 87% 30.10 in 3.0 mi NW 11.5 mph 20.7 mph 0.00 in Rain Light Rain
11:53 AM 44.1 °F 37.4 °F 41.0 °F 89% 30.10 in 4.0 mi NW 13.8 mph - 0.00 in   Overcast
12:53 PM 45.0 °F 38.9 °F 41.0 °F 86% 30.10 in 7.0 mi NW 12.7 mph - N/A   Overcast
1:53 PM 45.0 °F 39.3 °F 41.0 °F 86% 30.10 in 7.0 mi NNW 11.5 mph 21.9 mph N/A   Overcast
2:53 PM 45.0 °F 38.5 °F 41.0 °F 86% 30.09 in 10.0 mi NNW 13.8 mph - N/A   Overcast
3:53 PM 46.0 °F 41.4 °F 41.0 °F 83% 30.11 in 10.0 mi NNW 9.2 mph - N/A   Overcast
4:53 PM 46.0 °F 41.4 °F 41.0 °F 83% 30.13 in 10.0 mi NNW 9.2 mph - N/A   Overcast
5:31 PM 44.6 °F 40.7 °F 41.0 °F 87% 30.13 in 10.0 mi NW 6.9 mph - N/A   Overcast
5:50 PM 44.6 °F 41.4 °F 42.8 °F 93% 30.13 in 6.0 mi NNW 5.8 mph - 0.00 in Rain Light Rain
5:53 PM 45.0 °F 42.6 °F 42.1 °F 90% 30.14 in 6.0 mi NNW 4.6 mph - 0.00 in Rain Light Rain
6:29 PM 44.6 °F 41.4 °F 41.0 °F 87% 30.13 in 6.0 mi North 5.8 mph - 0.00 in   Overcast
6:53 PM 44.1 °F 40.8 °F 41.0 °F 89% 30.14 in 6.0 mi North 5.8 mph - 0.00 in   Overcast
7:00 PM 44.6 °F 41.4 °F 41.0 °F 87% 30.14 in 7.0 mi North 5.8 mph - N/A   Overcast
7:53 PM 44.1 °F 40.8 °F 39.9 °F 85% 30.14 in 9.0 mi North 5.8 mph - N/A   Overcast
8:53 PM 44.1 °F 42.5 °F 39.9 °F 85% 30.14 in 8.0 mi North 3.5 mph - N/A   Overcast
9:53 PM 44.1 °F 42.5 °F 41.0 °F 89% 30.14 in 7.0 mi NW 3.5 mph - N/A   Overcast
10:53 PM 44.1 °F - 39.9 °F 85% 30.13 in 7.0 mi Calm Calm - N/A   Overcast
11:53 PM 44.1 °F - 39.9 °F 85% 30.13 in 7.0 mi Calm Calm - N/A   Overcast